Temperature
5 5 5 5 5 6 6 6 6 6 6 7 7 7 7 7 7 7 7 7 7 7 7 7 7 7 7 7 7 7 7 7 7 7 7 8 8 8 8 8 8 8 8
5 5 5 5 5 5 5 5 6 6 6 6 6 7 7 7 7 7 7 7 7 7 7 7 7 7 7 7 7 7 6 6 6 6 7 7 7 7 7 8 8 8 8
4 4 5 5 5 5 5 5 5 5 5 6 6 6 6 6 6 6 6 6 6 6 6 6 6 6 6 6 6 6 6 6 6 6 6 6 7 7 7 7 7 7 7
4 4 4 4 4 4 4 4 4 5 5 5 5 5 5 5 5 5 5 5 5 5 5 5 6 6 6 6 5 5 5 5 5 5 5 5 6 6 6 6 6 7 7
3 3 3 4 4 4 4 4 4 4 4 5 5 5 5 5 5 5 5 5 5 5 5 5 5 5 5 5 5 5 5 4 4 4 4 4 5 5 5 5 5 5 6
3 3 3 3 3 4 4 4 4 4 4 4 4 4 4 4 4 4 4 4 4 4 4 4 4 4 4 4 4 4 4 4 4 4 4 4 4 4 4 4 4 4 4
3 2 2 3 3 3 3 3 3 3 4 4 4 3 3 3 3 3 3 3 3 3 3 3 4 4 3 3 4 4 4 4 3 3 3 3 3 4 4 3 3 3 4
2 2 2 2 2 2 2 3 3 3 3 3 3 3 3 3 3 3 3 3 3 3 2 3 3 3 3 2 3 3 3 3 3 3 3 3 3 3 3 3 3 3 3
2 2 2 2 2 2 2 2 2 2 2 2 2 2 2 2 2 2 2 2 2 2 2 2 2 2 2 2 2 2 2 2 2 2 3 3 3 3 3 2 2 2 2
2 2 1 1 1 1 1 1 1 1 1 1 1 1 1 1 1 1 1 1 1 2 2 2 2 1 1 1 1 1 1 2 2 2 2 2 2 2 2 2 2 2 2
1 1 1 1 1 1 1 1 1 1 1 0 0 0 0 0 1 1 1 0 0 1 1 1 1 1 1 1 0 0 0 1 1 1 1 2 2 2 2 2 2 1 2
1 1 1 1 1 0 0 0 0 0 0 0 0 0 0 -0 -0 -0 -0 -0 -0 -0 -0 -0 -0 -0 -0 -0 -0 -0 -0 -0 0 0 1 1 1 1 1 1 1 1 1
1 1 0 0 0 0 0 -0 -0 -0 -0 -1 -1 -0 -1 -1 -1 -1 -1 -1 -1 -1 -1 -1 -1 -1 -1 -1 -1 -1 -1 -1 -1 -0 -0 -0 0 0 1 1 1 1 1
0 0 0 0 -0 -0 -0 -0 -1 -1 -1 -1 -1 -1 -1 -1 -1 -2 -2 -2 -2 -2 -2 -2 -1 -1 -1 -1 -1 -1 -1 -2 -2 -2 -2 -1 -1 -0 -0 -0 -0 0 0
0 0 -0 -0 -0 -1 -1 -1 -1 -1 -2 -2 -2 -2 -2 -2 -2 -2 -3 -2 -2 -2 -2 -2 -2 -2 -2 -2 -2 -2 -2 -2 -2 -2 -2 -2 -2 -1 -1 -1 -1 -1 -1
-0 -0 -0 -1 -1 -1 -1 -1 -2 -2 -2 -2 -2 -3 -3 -3 -3 -3 -3 -3 -3 -3 -3 -3 -3 -3 -3 -3 -3 -3 -3 -3 -3 -3 -3 -3 -2 -2 -2 -1 -1 -1 -1
-0 -0 -1 -1 -1 -1 -2 -2 -2 -2 -2 -2 -3 -3 -3 -3 -3 -3 -3 -3 -3 -3 -3 -3 -4 -4 -4 -4 -4 -4 -4 -4 -4 -4 -3 -3 -3 -3 -3 -2 -2 -2 -2
-0 -1 -1 -1 -2 -2 -2 -2 -3 -3 -3 -3 -3 -3 -3 -3 -4 -4 -4 -4 -4 -4 -4 -4 -4 -4 -4 -4 -4 -4 -4 -4 -5 -5 -4 -4 -4 -3 -3 -3 -3 -3 -2
-1 -1 -1 -2 -2 -2 -3 -3 -3 -3 -3 -3 -3 -3 -3 -4 -4 -4 -4 -4 -4 -5 -5 -5 -5 -5 -5 -5 -5 -5 -5 -5 -5 -5 -5 -4 -4 -4 -4 -3 -3 -3 -3
-1 -1 -2 -2 -2 -3 -3 -3 -3 -3 -4 -4 -4 -4 -4 -4 -5 -5 -5 -5 -5 -5 -5 -5 -5 -6 -6 -6 -6 -6 -5 -5 -5 -5 -5 -5 -5 -4 -4 -4 -4 -4 -4
-1 -2 -2 -2 -3 -3 -3 -4 -4 -4 -4 -4 -5 -5 -5 -5 -5 -5 -5 -6 -6 -6 -6 -6 -6 -6 -6 -6 -6 -6 -6 -6 -6 -6 -6 -5 -5 -5 -5 -4 -4 -4 -4
-2 -2 -2 -3 -3 -3 -4 -4 -4 -4 -5 -5 -5 -5 -5 -6 -6 -6 -6 -6 -6 -6 -6 -6 -6 -6 -6 -6 -6 -6 -6 -6 -6 -6 -6 -6 -6 -5 -5 -5 -5 -5 -5
-2 -2 -3 -3 -3 -4 -4 -4 -4 -5 -5 -5 -5 -5 -6 -6 -6 -6 -6 -6 -6 -6 -6 -6 -6 -6 -6 -6 -6 -6 -7 -6 -6 -6 -6 -6 -6 -6 -6 -5 -5 -5 -5
-3 -3 -3 -4 -4 -4 -5 -5 -5 -5 -5 -5 -6 -6 -6 -6 -6 -6 -6 -7 -7 -7 -7 -7 -7 -7 -7 -7 -6 -6 -7 -7 -7 -6 -6 -6 -6 -6 -6 -6 -6 -5 -5
-3 -4 -4 -4 -5 -5 -5 -5 -5 -5 -6 -6 -6 -6 -6 -6 -7 -7 -7 -7 -7 -7 -7 -7 -7 -7 -7 -7 -7 -7 -7 -7 -7 -7 -7 -6 -6 -6 -6 -6 -6 -6 -6
-4 -4 -4 -5 -5 -5 -6 -6 -6 -6 -6 -6 -6 -7 -7 -7 -7 -7 -7 -7 -7 -7 -7 -7 -7 -7 -7 -7 -7 -7 -7 -7 -7 -7 -7 -7 -6 -6 -6 -6 -6 -6 -6
Wind_Speed
7 5 5 3 2 2 2 2 2 2 3 2 2 1 1 1 2 3 4 3 4 4 4 5 6 5 4 4 4 4 5 6 9 7 4 4 5 6 6 9 12 12 14
6 6 5 5 4 4 3 3 2 2 2 2 2 1 1 1 0 1 3 3 4 5 5 5 6 5 6 5 5 6 6 6 7 9 6 5 6 7 7 8 8 10 11
6 6 5 5 5 5 4 4 3 2 3 2 2 1 1 1 1 1 1 2 3 3 4 4 5 5 6 5 5 6 6 6 6 7 8 6 5 5 6 6 6 7 9
5 5 5 5 5 5 4 4 4 3 3 2 2 2 2 1 2 1 1 1 2 3 4 5 5 6 6 6 6 7 6 6 6 7 7 6 5 4 5 6 6 6 8
4 4 5 4 4 4 4 4 4 4 4 3 3 3 3 2 2 1 1 1 2 2 3 4 4 5 7 7 7 6 7 7 7 7 7 6 6 5 6 5 8 7 7
3 4 4 4 4 5 5 4 4 4 4 4 4 4 4 3 4 4 2 1 1 2 3 4 4 4 6 7 9 9 9 9 8 8 8 9 9 8 7 7 7 7 8
3 4 4 4 4 4 5 5 5 4 4 4 3 4 4 5 6 6 4 2 2 2 3 4 4 4 5 5 6 8 8 10 11 10 10 11 10 9 8 9 8 8 9
4 4 4 3 3 4 4 4 4 3 3 3 3 3 3 5 7 7 6 3 2 3 3 4 4 5 5 5 5 6 6 7 8 8 9 10 9 8 9 10 10 9 7
4 4 4 3 3 3 4 4 4 3 4 4 3 4 4 5 7 6 5 3 3 3 4 4 4 5 8 8 5 6 7 7 7 8 10 10 10 9 8 6 6 6 7
4 4 3 3 2 2 3 3 3 3 3 3 4 4 4 5 7 7 6 3 3 4 4 4 6 7 9 8 5 5 7 7 7 7 7 8 8 8 8 8 7 7 5
4 3 3 2 2 2 2 3 3 3 3 3 3 4 4 5 6 7 7 3 3 4 4 4 5 9 9 9 7 6 8 8 6 6 6 6 5 5 5 6 7 7 7
3 2 2 2 2 2 2 2 2 2 2 3 3 4 4 5 6 7 8 7 5 4 4 4 5 8 9 9 7 7 9 8 5 5 5 5 5 5 5 6 7 8 7
2 2 2 2 2 2 2 2 2 2 2 2 3 4 5 4 5 7 8 8 7 5 4 7 8 9 8 6 7 8 7 5 4 4 5 6 5 6 5 5 6 5 5
3 3 2 2 2 2 2 2 2 2 2 2 3 4 4 5 5 4 5 5 6 5 5 6 7 7 5 6 6 5 4 4 5 5 5 5 5 5 5 5 5 4 3
3 3 2 2 2 2 2 2 2 3 3 3 3 3 3 5 6 8 7 5 4 5 5 4 4 4 4 4 5 4 4 5 5 5 5 5 5 5 5 4 4 3 3
3 3 2 2 2 2 2 3 3 3 4 4 4 4 4 6 8 9 9 8 8 7 5 4 4 4 4 5 5 5 5 5 6 6 6 5 5 5 5 4 3 3 4
4 4 3 2 2 2 2 2 3 4 4 4 5 5 5 7 8 8 9 8 7 6 4 4 4 5 5 5 5 5 5 6 6 6 6 6 5 5 5 4 4 4 4
4 4 3 3 2 3 3 2 2 2 3 4 5 6 7 7 8 8 8 6 5 4 4 4 5 5 5 5 5 5 6 6 6 6 6 6 5 5 5 5 4 5 4
4 3 3 3 3 3 3 2 2 2 3 3 4 5 7 7 7 7 6 3 4 4 5 5 5 5 6 6 5 6 6 6 6 6 6 6 5 5 5 5 4 5 4
4 5 4 3 2 2 2 2 2 2 3 3 3 4 4 4 4 4 4 4 4 5 5 5 6 6 6 6 6 5 6 6 6 5 5 6 5 5 5 5 5 4 4
3 4 5 3 3 3 3 3 3 3 3 3 4 4 5 3 4 5 4 4 4 5 5 6 6 6 6 6 6 6 6 6 6 5 5 5 5 5 5 4 5 4 3
3 3 3 3 3 3 3 3 3 3 4 4 4 5 6 4 4 4 5 5 5 5 5 5 5 5 5 6 6 6 6 6 6 5 5 5 5 5 4 4 4 3 3
3 3 3 3 2 4 3 3 3 3 3 4 4 4 4 4 4 4 5 5 5 5 5 5 5 6 6 6 6 5 6 6 6 6 6 5 5 4 4 4 4 3 2
4 4 3 3 3 3 3 3 3 3 3 4 4 4 4 4 4 5 5 5 5 5 5 5 5 7 8 7 7 6 6 7 7 6 6 5 5 4 4 3 3 3 2
3 3 3 3 3 3 3 3 3 3 4 4 4 4 4 4 4 5 4 4 5 5 6 6 5 6 8 9 9 8 9 10 9 6 5 4 4 4 3 3 3 2 2
3 3 3 3 3 3 3 3 3 4 4 4 4 4 4 4 4 4 4 4 5 5 6 6 7 8 9 8 9 10 10 10 9 8 5 3 3 3 3 3 2 2 1
Wind_Direction
354 353 351 348 353 5 5 354 356 346 333 323 324 307 287 257 224 214 222 225 227 235 234 233 236 232 233 231 229 230 238 242 261 273 259 251 238 241 245 241 241 239 241
353 356 0 2 6 12 1 347 351 335 319 316 327 329 333 329 305 236 234 234 233 237 239 239 241 238 237 239 239 240 241 239 252 269 271 252 240 237 240 242 243 242 241
355 360 2 3 4 0 352 349 350 346 349 355 354 349 339 334 323 270 235 235 240 245 244 247 248 238 244 246 245 247 248 251 248 258 267 260 251 242 244 252 248 247 248
353 357 358 357 357 353 352 353 353 355 359 10 17 15 8 360 343 320 290 255 264 265 255 250 250 244 246 248 251 249 252 255 256 258 264 265 258 246 236 247 260 253 255
347 350 345 346 352 358 358 351 352 2 8 14 25 20 12 5 350 328 284 279 276 289 281 265 262 260 257 256 258 254 250 254 257 259 262 265 260 252 247 246 256 262 261
338 339 341 350 359 3 356 356 1 7 9 23 33 24 11 355 360 358 347 323 306 301 305 294 286 281 280 275 269 264 257 253 254 256 260 260 262 256 256 256 254 259 261
329 330 339 346 354 354 353 4 4 1 10 20 23 19 3 355 0 359 357 342 332 318 309 304 303 307 307 289 285 282 271 266 259 256 259 262 264 260 253 253 253 255 258
321 321 329 336 341 347 357 358 351 355 4 6 7 1 350 351 358 358 356 348 327 313 303 301 294 298 300 298 292 289 280 272 269 261 260 264 262 260 251 250 251 257 265
318 320 324 326 333 345 352 349 344 349 355 355 348 347 341 340 350 349 347 329 320 312 309 312 305 296 306 310 298 292 292 287 288 284 282 281 281 273 263 257 251 251 266
296 300 311 323 330 336 335 335 336 341 349 350 347 341 334 331 342 345 342 324 319 317 317 314 313 312 314 316 300 294 293 296 301 300 293 290 281 276 268 251 246 246 261
289 296 307 320 318 318 324 328 331 341 350 345 337 335 335 334 339 345 342 335 319 318 319 316 312 318 317 314 308 294 292 300 296 291 290 289 287 281 274 261 249 243 247
291 293 301 310 315 324 324 326 331 336 344 336 335 337 337 334 341 341 342 339 333 317 312 309 311 320 320 319 313 311 314 313 299 294 292 291 291 287 281 275 264 252 243
278 276 285 299 312 317 315 316 324 333 335 326 328 329 330 333 336 343 343 338 336 329 314 316 320 326 324 318 320 323 320 305 299 300 292 286 285 281 280 277 277 267 266
260 267 272 275 297 306 302 302 302 301 309 315 318 318 318 322 327 334 334 331 331 326 321 320 322 325 326 324 323 321 315 305 301 289 288 288 290 287 284 280 280 282 284
253 258 262 262 272 281 284 279 279 273 280 298 300 301 309 316 325 330 328 324 323 316 319 321 323 324 328 326 322 315 313 313 310 303 297 296 297 292 290 285 279 283 266
242 248 250 256 270 278 289 308 301 295 308 317 322 313 305 311 323 328 329 331 331 331 331 324 323 318 316 315 315 314 311 310 307 304 301 296 293 290 291 296 286 275 274
228 231 236 240 243 259 275 285 306 316 320 324 326 325 322 326 331 333 337 339 336 341 338 323 321 317 310 309 308 307 305 307 306 304 302 298 296 293 290 290 287 288 287
220 221 222 225 230 240 249 259 270 293 313 318 323 325 327 329 332 333 336 340 336 339 326 317 315 316 308 304 305 303 302 304 304 304 304 299 293 290 290 285 279 277 279
216 219 220 222 225 235 243 252 263 271 286 303 315 322 327 328 328 332 339 335 319 317 315 311 308 306 307 298 295 296 295 295 297 297 298 298 294 291 288 285 280 285 280
221 226 216 217 226 237 241 248 261 273 282 290 297 304 319 327 326 325 327 319 312 309 307 305 304 302 301 299 293 291 293 294 293 292 295 296 295 292 289 285 279 276 274
218 223 219 220 227 235 240 244 251 261 273 283 287 293 306 310 305 309 311 310 310 308 306 304 303 304 301 298 296 289 287 287 286 287 291 292 294 294 290 289 289 283 282
210 214 216 221 228 235 241 243 250 258 267 276 289 294 296 300 298 301 304 306 309 307 306 302 300 300 300 299 296 293 288 286 287 289 292 292 292 292 292 289 291 291 290
200 207 216 222 225 242 250 248 249 257 265 270 277 285 291 294 296 297 300 305 308 309 309 307 305 305 306 304 296 286 283 281 283 284 288 290 290 290 291 293 293 287 281
200 206 215 223 224 231 242 250 253 258 266 274 278 280 282 285 290 295 301 306 309 308 306 305 303 303 306 311 307 299 293 289 286 281 279 279 283 285 284 287 284 279 267
196 204 212 219 225 232 240 248 256 263 269 273 278 284 289 291 292 296 301 303 305 304 303 303 302 304 306 307 307 305 306 308 307 303 292 281 278 278 279 280 275 272 273
197 205 212 217 226 234 239 248 256 264 268 273 275 278 282 285 290 297 301 303 306 305 303 301 301 302 304 305 306 311 315 316 315 316 315 294 284 281 282 276 269 253 242
Height
1447 1445 1443 1442 1440 1439 1438 1437 1437 1437 1437 1437 1438 1438 1439 1440 1442 1443 1445 1446 1448 1449 1450 1452 1453 1455 1457 1458 1460 1460 1461 1461 1459 1457 1458 1458 1458 1459 1460 1460 1461 1461 1461
1446 1444 1442 1440 1439 1437 1436 1435 1435 1435 1434 1434 1435 1435 1436 1437 1438 1439 1440 1441 1442 1444 1445 1446 1447 1449 1450 1451 1452 1453 1453 1454 1454 1451 1450 1450 1450 1451 1451 1451 1452 1452 1453
1446 1444 1441 1439 1437 1436 1435 1434 1433 1432 1431 1431 1432 1432 1433 1433 1434 1435 1435 1436 1437 1438 1439 1440 1441 1443 1443 1444 1445 1446 1446 1447 1447 1446 1443 1443 1442 1443 1443 1442 1443 1443 1444
1446 1443 1441 1439 1437 1435 1434 1433 1432 1431 1430 1429 1429 1430 1430 1430 1431 1431 1431 1431 1432 1433 1434 1435 1436 1437 1437 1437 1438 1439 1439 1439 1439 1438 1436 1435 1434 1434 1434 1433 1433 1434 1434
1445 1442 1440 1438 1436 1435 1433 1432 1431 1429 1428 1427 1427 1427 1427 1427 1427 1427 1427 1427 1428 1429 1429 1430 1430 1431 1431 1431 1431 1431 1431 1431 1431 1430 1429 1428 1426 1426 1425 1425 1425 1424 1424
1444 1442 1440 1437 1435 1433 1432 1430 1429 1427 1426 1425 1425 1425 1425 1424 1424 1424 1423 1424 1424 1424 1424 1424 1424 1424 1424 1424 1424 1424 1424 1423 1422 1422 1421 1420 1418 1418 1418 1418 1417 1417 1414
1443 1441 1439 1436 1434 1433 1431 1429 1427 1426 1425 1424 1423 1423 1422 1422 1421 1420 1420 1420 1419 1419 1419 1419 1418 1418 1418 1417 1417 1417 1416 1416 1416 1415 1413 1412 1411 1411 1411 1410 1409 1408 1407
1442 1440 1437 1435 1433 1431 1430 1428 1426 1425 1423 1422 1421 1421 1420 1419 1418 1417 1417 1416 1415 1415 1414 1414 1413 1413 1412 1412 1410 1409 1408 1408 1408 1407 1406 1404 1404 1404 1404 1403 1402 1401 1400
1440 1438 1436 1434 1432 1430 1428 1426 1425 1423 1422 1420 1419 1418 1417 1416 1415 1414 1413 1412 1411 1411 1410 1409 1409 1408 1407 1407 1405 1403 1401 1400 1400 1399 1398 1397 1396 1396 1396 1395 1394 1393 1391
1438 1436 1434 1432 1430 1428 1427 1425 1424 1422 1420 1419 1417 1416 1415 1413 1412 1411 1410 1409 1408 1407 1406 1405 1404 1403 1402 1401 1400 1398 1395 1393 1392 1391 1390 1389 1388 1387 1387 1387 1386 1385 1384
1436 1434 1432 1431 1429 1427 1425 1424 1422 1420 1418 1417 1416 1414 1413 1411 1409 1408 1407 1406 1404 1403 1401 1400 1399 1398 1397 1396 1394 1392 1390 1388 1386 1385 1383 1381 1380 1379 1379 1379 1378 1378 1377
1433 1432 1430 1429 1427 1425 1423 1422 1420 1418 1417 1415 1413 1411 1410 1408 1406 1405 1403 1402 1401 1399 1397 1396 1394 1393 1392 1390 1389 1387 1385 1383 1381 1378 1376 1374 1373 1372 1371 1371 1371 1370 1370
1430 1429 1427 1426 1424 1423 1421 1419 1417 1416 1414 1413 1411 1409 1407 1406 1404 1402 1400 1399 1397 1396 1394 1392 1390 1388 1386 1385 1383 1381 1379 1377 1375 1372 1369 1368 1367 1366 1365 1364 1363 1363 1362
1427 1425 1424 1423 1421 1420 1418 1417 1415 1413 1412 1410 1408 1406 1405 1403 1401 1399 1397 1395 1394 1392 1390 1388 1386 1384 1382 1380 1378 1376 1374 1372 1370 1367 1365 1363 1362 1360 1359 1358 1357 1356 1355
1423 1422 1421 1419 1418 1417 1415 1414 1412 1411 1410 1408 1406 1404 1402 1400 1399 1397 1395 1393 1391 1389 1386 1384 1381 1379 1377 1375 1373 1371 1369 1367 1365 1362 1360 1358 1356 1355 1354 1353 1352 1351 1349
1419 1418 1417 1416 1415 1414 1412 1411 1410 1409 1407 1405 1404 1402 1400 1399 1396 1394 1392 1390 1388 1386 1383 1380 1377 1375 1373 1370 1368 1366 1364 1362 1360 1358 1356 1354 1352 1350 1348 1348 1347 1345 1344
1415 1414 1414 1413 1411 1410 1409 1408 1406 1405 1404 1403 1401 1399 1397 1395 1393 1391 1389 1387 1384 1382 1380 1377 1374 1372 1369 1367 1365 1362 1360 1358 1356 1354 1351 1349 1348 1346 1344 1343 1342 1341 1340
1412 1411 1410 1409 1408 1407 1406 1405 1403 1402 1400 1398 1398 1396 1394 1392 1390 1388 1386 1383 1381 1379 1376 1374 1371 1368 1366 1363 1361 1359 1356 1354 1352 1349 1347 1345 1343 1342 1340 1339 1338 1337 1336
1408 1407 1406 1405 1405 1404 1403 1402 1400 1399 1397 1396 1394 1392 1391 1389 1387 1385 1382 1380 1377 1375 1373 1370 1368 1365 1362 1359 1357 1355 1353 1350 1348 1346 1343 1341 1339 1338 1336 1335 1334 1333 1332
1403 1403 1402 1402 1401 1400 1399 1398 1397 1395 1394 1392 1391 1389 1387 1385 1383 1381 1379 1377 1374 1372 1369 1366 1363 1361 1358 1355 1353 1351 1348 1346 1344 1342 1339 1337 1335 1334 1332 1331 1330 1329 1328
1399 1399 1398 1398 1397 1396 1395 1394 1393 1392 1391 1389 1388 1386 1384 1382 1380 1378 1376 1373 1371 1368 1365 1363 1360 1357 1354 1351 1348 1346 1344 1342 1340 1338 1336 1334 1332 1330 1329 1328 1327 1326 1325
1395 1394 1394 1393 1393 1392 1392 1391 1390 1389 1387 1386 1384 1383 1381 1378 1376 1374 1372 1370 1367 1365 1362 1359 1356 1353 1350 1347 1344 1341 1340 1338 1336 1335 1333 1331 1329 1328 1326 1325 1324 1323 1322
1390 1390 1390 1389 1389 1388 1387 1387 1386 1385 1384 1382 1381 1379 1377 1375 1373 1370 1368 1366 1364 1361 1359 1356 1352 1349 1347 1344 1341 1338 1336 1335 1333 1332 1330 1328 1327 1325 1324 1323 1322 1321 1321
1386 1386 1385 1385 1384 1384 1383 1382 1381 1381 1380 1378 1377 1375 1373 1371 1369 1367 1365 1363 1360 1358 1355 1352 1349 1346 1343 1340 1337 1335 1333 1332 1331 1329 1328 1326 1325 1323 1322 1321 1321 1320 1320
1382 1381 1381 1380 1380 1379 1379 1378 1377 1376 1375 1374 1372 1371 1369 1367 1365 1363 1361 1359 1357 1354 1352 1349 1346 1343 1341 1338 1335 1333 1331 1329 1328 1327 1326 1324 1323 1322 1321 1320 1319 1319 1319
1377 1377 1376 1376 1376 1375 1374 1374 1373 1372 1371 1370 1368 1367 1365 1363 1362 1360 1358 1356 1353 1351 1348 1346 1344 1341 1338 1336 1333 1331 1329 1327 1326 1325 1324 1322 1321 1320 1319 1319 1319 1318 1318